World > North America > United States > Mississippi > Vardaman  

Vardaman, MS Hourly Weather Updates

Feedback E-mail the Weather

Quick Clicks

Vardaman, MS Weather Maps

°F °C°F °C
Vardaman Weather Map
UTC Time: 5/28/2024, 14:53
Your Time:

Vardaman, MS Regional Weather

Expires:202405281500;;026751
ASUS44 KJAN 281410
RWRMS 

MISSISSIPPI HOURLY WEATHER ROUNDUP
NATIONAL WEATHER SERVICE JACKSON MS
900 AM CDT TUE MAY 28 2024

NOTE: "FAIR: INDICATES FEW OR NO CLOUDS BELOW 12,000 FEET WITH NO
SIGNIFICANT WEATHER AND/OR OBSTRUCTIONS TO VISIBILITY.


MSZ003>006-009-014>017-022>024-029>033-037>039-281500-
NORTHEAST MISSISSIPPI
  
CITY           SKY/WX    TMP DP  RH WIND       PRES   REMARKS
ABERDEEN       SUNNY     79  72  78 CALM      30.07S                  
COLUMBUS AFB   SUNNY     80  69  69 CALM      30.03R                  
CORINTH        SUNNY     75  68  78 VRB5      30.06S                  
GOLDN TRIANGLE SUNNY     79  68  69 CALM      30.07S                  
IUKA             N/A     76  68  76 CALM      30.07R                  
LOUISVILLE     SUNNY     81  66  61 CALM      30.11R                  
STARKVILLE     SUNNY     79  68  69 CALM      30.05S                  
TUPELO         SUNNY     81  67  62 CALM      30.07R                  
$$


SKY/WX - Weather  TMP - Temperature  DP - Dew Point  RH - Humidity
WIND - Wind Direction/Speed PRES - Barometric Pressure VSB - Visibility
WCI - Wind Chill Index E13G22 Wind - East Wind 13 mph/Gusts of 22 mph

Trending Headlines

Trending Entertainment Headlines

Vardaman Radar Loop

Use the map search tool if you want to place a location marker on the radar map...

Vardaman Quick Facts

National Two Day Weather Forecast


E-mail the Vardaman Weather Forecast

Voice your opinion or tell us about page issues...